Regional Weather Roundup
Issued by NWS

Home | Current Version | Previous Version | Graphics & Text | Print | Product List | Glossary On
Versions: 1 2 3 4 5 6 7 8 9 10 11 12 13 14 15 16 17 18 19 20 21 22 23 24 25 26 27 28 29 30 31 32 33 34 35 36 37 38 39 40 41 42 43 44 45 46 47 48 49 50
000
ASUS45 KTFX 011519
RWRMT
MONTANA HOURLY WEATHER ROUNDUP
NATIONAL WEATHER SERVICE GREAT FALLS MT
819 AM MST SUN FEB 1 2015

NOTE: "FAIR" INDICATES FEW OR NO CLOUDS BELOW 12000 FEET WITH NO
SIGNIFICANT WEATHER AND/OR OBSTRUCTIONS TO VISIBILITY.

* THESE STATIONS ARE NOT UNDER NWS QUALITY CONTROL. THEY DO NOT
   REPORT WEATHER SUCH AS PRECIPITATION OR FOG.

MTZ001>007-043-011600-
WEST OF THE DIVIDE
CITY           SKY/WX    TMP DP  RH WIND       PRES   REMARKS
KALISPELL      CLOUDY    19  12  74 N6        30.20F WCI  11
MISSOULA       PTSUNNY   25  18  75 E10       30.22S WCI  15
BUTTE          PTCLDY    12   9  88 CALM      30.15F
MULLAN PASS    CLOUDY    21  18  88 S9        30.04F WCI  11
* ANACONDA     PTCLDY    16  10  77 S8         N/A   WCI   5
* ESSEX        N/A        8   4  84 NE2        N/A
* EUREKA APT   PTCLDY    25  19  78 CALM      30.21F
* HAMILTON APT PTSUNNY   27  18  69 S9        30.17F WCI  18
* LIBBY APT    PTSUNNY   25  25 100 CALM      30.20F
* LINCOLN      N/A        8   2  76 NE2        N/A
* LOOKOUT PASS N/A       23  22  96 S3         N/A
* POLSON       N/A       22  21  96 N/A        N/A
* RONAN APT    PTCLDY    19  18  96 N/A        N/A
* SEELEY LAKE  N/A       18  12  77 N/A        N/A
* THOMP F APT  CLOUDY    16  12  84 N4         N/A
$$

MTZ008-052>055-011600-
SOUTHWEST MONTANA
CITY           SKY/WX    TMP DP  RH WIND       PRES   REMARKS
BOZEMAN        PTCLDY    14  10  84 CALM      30.23F
DILLON         SUNNY      9   7  91 SW3       30.18F
* W YELLOWSTON PTCLDY    14  11  88 N/A        N/A
* THREE FORKS  SUNNY     14  14 100 N/A        N/A
* BOULDER HILL N/A       10   6  84 SW12       N/A   WCI  -5
* MONIDA PASS  N/A        4   1  87 W1         N/A
* RAYNOLDS PAS N/A        5  -3  69 SW2        N/A
* WHITEHALL    N/A       11   6  80 NW3        N/A
* WISE RIVER   N/A        8   4  84 W4         N/A
$$

MTZ009>010-012-014-046-048-049-054-011600-
EAST SLOPES AND CENTRAL MONTANA
CITY           SKY/WX    TMP DP  RH WIND       PRES   REMARKS
CUT BANK       SUNNY     -2  -8  75 CALM      30.14F
GREAT FALLS    PTCLDY    -8  -9  95 CALM      30.19F
HELENA         SUNNY     12   9  88 W3        30.25F
MALMSTROM AFB  PTCLDY    -6  -8  91 SW3       30.22F
* CONRAD       PTCLDY     1  -4  79 CALM       N/A
* DEARBORN     N/A        2  -1  87 S1         N/A
* EAST GLACIER N/A       17  11  77 NW9G17     N/A   WCI   6
* MONARCH      N/A        4   0  83 S7         N/A   WCI  -8
* PENDROY      N/A        6   3  87 SW8        N/A   WCI  -7
* ROGERS PASS  N/A        8   5  87 NW7G14     N/A   WCI  -3
* SWEET GRASS  N/A       -1  -5  83 W5         N/A   WCI -12
* WHITE SULPH  N/A        5  -1  76 NE5        N/A   WCI  -5
$$

MTZ011-013-016-021-035-040-045-047-050-051-011600-
NORTH CENTRAL MONTANA
CITY           SKY/WX    TMP DP  RH WIND       PRES   REMARKS
HAVRE          PTCLDY   -13 -18  78 E6        30.34F WCI -27
LEWISTOWN      PTCLDY    -2  -8  75 SE8       30.21F WCI -17
* N BAR RANCH  SUNNY      0  -6  75 CALM      30.23F
* CHINOOK      SUNNY    -11 -17  74 CALM      30.38F VSB 3
* MALTA APT    PTSUNNY  -17 -26  62 N/A        N/A
* CHESTER      N/A       -8 -14  74 N/A        N/A
* DENTON       N/A        1  -2  87 SE4        N/A
* GEYSER       N/A       -3  -7  83 SW3        N/A
* JUDITH GAP   N/A        0  -1  95 S8         N/A   WCI -14
* LOMA         N/A      -11 -15  82 N/A        N/A
$$

MTZ017>020-022>027-061-062-011600-
NORTHEAST MONTANA
CITY           SKY/WX    TMP DP  RH WIND       PRES   REMARKS
GLASGOW        FOG       -9 -13  82 SE8       30.41F VSB 1 1/4 WCI -25
GLENDIVE       SUNNY    -11 -20  63 W3        30.44S
JORDAN         PTCLDY   -15 -20  77 CALM      30.40F
SIDNEY         SUNNY    -11 -22  57 CALM      30.51F
WOLF POINT     SUNNY    -11 -17  74 CALM      30.49F
* BEAVER HILL  N/A       -9 -14  78 W1         N/A
* CIRCLE       N/A       -9 -13  82 N/A        N/A
* LINDSAY DVD  N/A      -13 -18  78 SW1        N/A
* NAVAJO       N/A      -10 -14  82 SW6        N/A   WCI -24
* PLENTYWOOD A SUNNY     -9 -15  74 CALM      30.44F
* POPLAR APT   SUNNY     -6 -11  78 N/A       30.49F
* SACO         N/A      -14 -19  78 SE6        N/A   WCI -29
* SCOBEY APT   SUNNY    -11 -22  57 N/A        N/A
$$

MTZ028>042-056>058-011600-
SOUTHCENTRAL AND SOUTHEAST MONTANA
CITY           SKY/WX    TMP DP  RH WIND       PRES   REMARKS
BAKER          PTCLDY    -9 -13  82 W7        30.40S WCI -24
BILLINGS       PTCLDY     7   3  83 S5        30.33F WCI  -2
LIVINGSTON     PTCLDY     9   5  84 CALM      30.21F
MILES CITY     PTCLDY    -4  -8  83 W3        30.43F
* BIG TIMBER A PTCLDY     7   3  83 E5        30.23F WCI  -2
* FORSYTH APT  PTCLDY     0  -4  83 CALM      30.42F
* LAUREL APT   PTCLDY     3  -6  66 N/A        N/A
* ROUNDUP APT  SUNNY      7   0  73 N/A        N/A
* ALZADA       N/A       -6 -10  82 W2         N/A
* HYSHAM       N/A        2  -1  87 W2         N/A
* LAME DEER    N/A       -3  -7  83 W5         N/A   WCI -14
* REED POINT   N/A       10   7  88 E2         N/A
* ROSCOE HILL  N/A        3  -1  83 SE2        N/A
$$

REGIONAL REPORTS...DAKOTAS
CITY           SKY/WX    TMP DP  RH WIND       PRES   REMARKS
WILLISTON      PTSUNNY  -15 -18  86 SW5       30.50S WCI -28
DICKINSON      PTSUNNY   -9 -13  82 NW3       30.39F
BEACH          SUNNY     -9 -13  82 W6        30.42S WCI -23
CROSBY         SUNNY     -8 -13  78 SW5       30.47F WCI -20
TIOGA          SUNNY    -15 -18  86 W5        30.47F WCI -28
WATFORD CITY   SUNNY    -13 -18  78 SW3       30.46F
BISMARCK       PTSUNNY   -8 -17  64 NW10      30.54R WCI -26
GRAND FORKS    PTSUNNY  -11 -18  70 N13       30.58S WCI -32
FARGO          CLOUDY    -8 -15  71 N18       30.52R WCI -31
BUFFALO SD     SUNNY     -4  -9  79 W6        30.30R WCI -17
RAPID CITY     PTCLDY     0  -6  75 N15       30.33R WCI -19
$$

REGIONAL REPORTS...WYOMING/IDAHO/WASHINGTON
CITY           SKY/WX    TMP DP  RH WIND       PRES   REMARKS
GILLETTE       FOG        5   1  83 NW14      30.27S VSB 3    WCI -12
SHERIDAN       CLOUDY    10   3  73 W8        30.32S WCI  -2
CODY           CLOUDY    12  10  92 CALM      30.22F
YELLOWSTONE LA PTSUNNY    5   1  83 NW5       30.15R WCI  -5
SALMON         CLOUDY    21  16  81 E6        30.26S WCI  13
MULLAN PASS    CLOUDY    21  18  88 S9        30.04S WCI  11
SAND POINT     CLOUDY    30  28  92 NE6       30.19F WCI  24
SPOKANE        CLOUDY    30  28  92 NE10      30.13F WCI  21
$$

REGIONAL REPORTS...ALBERTA
CITY           SKY/WX    TMP DP  RH WIND       PRES   REMARKS
CALGARY        PTCLDY     1  -2  87 SW3       30.04F
LETHBRIDGE     SUNNY      1   0  95 S8        30.12F WCI -13
MEDICINE HAT   SUNNY     -6  -8  91 NE3       30.26F
EDMONTON       PTSUNNY  -11 -17  74 S3        30.16F
WATERTON GATE  N/A       25  14  63 SW17G25    N/A   WCI  12
CARDSTON       N/A        7   5  91 S5         N/A   WCI  -2
MILK RIVER     N/A       -2  -4  91 SE7        N/A   WCI -15
$$

REGIONAL REPORTS...SASKATCHEWAN
CITY           SKY/WX    TMP DP  RH WIND       PRES   REMARKS
SWIFT CURRENT  SUNNY     -2  -6  83 SW12      30.25F WCI -20
REGINA         SUNNY    -15 -18  86 SE7       30.43F WCI -31
VAL MARIE      N/A      -20 -26  73 E3         N/A
ASSINIBOIA     N/A       -9 -13  82 S5         N/A   WCI -21
CORONACH       N/A      -11 -15  82 SE2        N/A

$$



USA.gov is the U.S. government's official web portal to all federal, state and local government web resources and services.